Find Starlink 31364

NORAD ID: 59463 Int'l Des: 2024-068 Owner: SPXS Country: US Constellation: starlink operational
LEOCIRCULAR

Live Position

Loading 3D Globe...

About Starlink 31364

Description loading...

Upcoming Passes

Passes for default location (London). Set your location on the main map for personalized predictions.

Altitude History

Loading altitude history...

Two-Line Element Set

1 59463U 24068J 26139.88727679 .00003315 00000-0 12996-3 0 9994
2 59463 43.0040 348.7862 0001247 252.7982 107.2733 15.27576236119454
Epoch: May 19, 2026 • Age: 10 hours

Current Status

Altitude 489.0 km
Velocity 7.62 km/s
Sub-Earth Point -26.46°S, 154.66°W
Launch Date Apr 10, 2024
Age 2.1 years
Type internet

Technical Details

Classification Payload
Mass 730.00 kg
Dry Mass 700.00 kg
Total Mass 730.00 kg
Length 0.30 m
Diameter 4.10 m
Span 29.00 m
Shape Box + pan
Manufacturer SPXS
Bus Type Starlink V2M
Phase Status In Orbit
Owner/State SPXS/US

Most Searched